Glencoe, MN

8:24 AM CST on December 13, 2019 (GMT -0600)
Glencoe Municipal

Weather History for KGYL - October, 2019

Change the Weather History Date:

Wednesday, October 23, 2019

  Actual Average (KHCD) Record (KHCD)
Temperature  
Mean Temperature 38 °F -  
Max Temperature 47 °F 58 °F 81 °F (1992)
Min Temperature 30 °F 35 °F 22 °F (1981)
Degree Days  
Heating Degree Days 26    
Moisture  
Dew Point 33 °F    
Average Humidity 78    
Maximum Humidity 100    
Minimum Humidity 59    
Precipitation  
Precipitation 0.00 in - - ()
Sea Level Pressure  
Sea Level Pressure 29.91 in    
Wind  
Wind Speed 7 mph (West)    
Max Wind Speed 13 mph    
Max Gust Speed 17 mph    
Visibility 10 miles    
Events      
Averages and records for this station are not official NWS values.
T = Trace of Precipitation, MM = Missing Value Source: NWS Daily Summary

Daily Weather History Graph

Daily Weather History Graph

Search for Another Location

Airport or City:

Astronomy

Oct. 23, 2019 Rise Set
Actual Time 7:41 AM CDT 6:18 PM CDT
Civil Twilight 7:12 AM CDT 6:48 PM CDT
Nautical Twilight 6:37 AM CDT 7:22 PM CDT
Astronomical Twilight 6:04 AM CDT 7:56 PM CDT
Moon 1:42 AM CDT (10/23) 4:26 PM CDT (10/23)
Length of Visible Light 11h 36m
Length of Day
10h 36m
Waning Crescent, 26% of the Moon is Illuminated
Oct 23
Waning Crescent
Oct 27
New
Nov 4
First Quarter
Nov 12
Full
Nov 19
Last Quarter

Hourly Weather History & Observations

Time (CDT) Temp. Windchill Dew Point Humidity Pressure Visibility Wind Dir Wind Speed Gust Speed Precip Events Conditions
12:15 AM 38.1 °F 31.7 °F 31.8 °F 78% 29.72 in 10.0 mi West 9.2 mph - N/A   Clear
12:57 AM 36.9 °F 31.4 °F 32.0 °F 83% 29.72 in 10.0 mi West 6.9 mph - N/A   Clear
1:15 AM 36.5 °F 30.3 °F 31.8 °F 83% 29.73 in 10.0 mi West 8.1 mph - N/A   Clear
1:16 AM 36.5 °F 31.0 °F 31.8 °F 83% 29.73 in 10.0 mi West 6.9 mph - N/A   Clear
1:35 AM 36.0 °F 31.1 °F 31.8 °F 85% 29.73 in 10.0 mi West 5.8 mph - N/A   Clear
1:36 AM 36.0 °F 31.1 °F 31.8 °F 85% 29.73 in 10.0 mi West 5.8 mph - N/A   Clear
1:57 AM 35.4 °F 30.5 °F 31.6 °F 86% 29.74 in 10.0 mi West 5.8 mph - N/A   Clear
2:15 AM 34.7 °F 29.6 °F 31.6 °F 89% 29.75 in 10.0 mi WSW 5.8 mph - N/A   Clear
2:16 AM 34.7 °F 29.6 °F 31.6 °F 89% 29.75 in 10.0 mi WSW 5.8 mph - N/A   Clear
2:35 AM 34.5 °F 30.4 °F 31.6 °F 89% 29.75 in 10.0 mi WSW 4.6 mph - N/A   Clear
2:36 AM 34.7 °F 30.6 °F 31.6 °F 89% 29.75 in 10.0 mi WSW 4.6 mph - N/A   Clear
2:58 AM 34.2 °F 29.0 °F 31.5 °F 90% 29.76 in 10.0 mi WSW 5.8 mph - N/A   Clear
3:17 AM 33.8 °F 30.8 °F 31.5 °F 91% 29.76 in 10.0 mi WSW 3.5 mph - N/A   Clear
3:35 AM 33.1 °F 28.7 °F 31.1 °F 92% 29.76 in 10.0 mi West 4.6 mph - N/A   Clear
3:36 AM 33.1 °F 28.7 °F 31.1 °F 92% 29.76 in 10.0 mi WSW 4.6 mph - N/A   Clear
3:55 AM 33.1 °F 28.7 °F 31.1 °F 92% 29.76 in 10.0 mi WSW 4.6 mph - N/A   Clear
3:59 AM 32.9 °F 29.8 °F 31.1 °F 93% 29.77 in 10.0 mi WSW 3.5 mph - N/A   Clear
4:16 AM 32.9 °F 28.5 °F 31.1 °F 93% 29.77 in 10.0 mi WSW 4.6 mph - N/A   Clear
4:35 AM 32.4 °F 27.9 °F 31.5 °F 96% 29.78 in 10.0 mi SW 4.6 mph - N/A   Clear
4:36 AM 32.4 °F 27.9 °F 31.3 °F 96% 29.78 in 10.0 mi SW 4.6 mph - N/A   Clear
4:55 AM 32.0 °F 27.5 °F 31.8 °F 99% 29.78 in 10.0 mi WSW 4.6 mph - N/A   Clear
4:59 AM 32.0 °F 26.4 °F 32.0 °F 100% 29.78 in 10.0 mi WSW 5.8 mph - N/A   Clear
5:16 AM 32.0 °F 27.5 °F 32.0 °F 100% 29.79 in 10.0 mi WSW 4.6 mph - N/A   Clear
5:35 AM 32.0 °F 28.7 °F 32.0 °F 100% 29.80 in 10.0 mi WSW 3.5 mph - N/A   Clear
5:36 AM 32.0 °F 28.7 °F 32.0 °F 100% 29.80 in 10.0 mi WSW 3.5 mph - N/A   Clear
5:58 AM 31.8 °F 27.3 °F 32.0 °F 100% 29.80 in 10.0 mi WSW 4.6 mph - N/A   Clear
6:16 AM 31.6 °F 27.0 °F 31.8 °F 100% 29.81 in 10.0 mi WSW 4.6 mph - N/A   Clear
6:35 AM 31.6 °F 28.3 °F 31.8 °F 100% 29.81 in 10.0 mi WSW 3.5 mph - N/A   Clear
6:55 AM 31.1 °F 26.4 °F 31.3 °F 100% 29.82 in 10.0 mi SW 4.6 mph - N/A   Clear
7:18 AM 31.1 °F 25.4 °F 31.1 °F 100% 29.82 in 10.0 mi SW 5.8 mph - N/A   Clear
7:35 AM - - - N/A% 29.83 in 10.0 mi WSW 3.5 mph - N/A   Clear
7:55 AM 30.7 °F 26.0 °F 30.9 °F 100% 29.83 in 10.0 mi SW 4.6 mph - N/A   Clear
7:56 AM - - - N/A% 29.83 in 10.0 mi WSW 4.6 mph - N/A   Clear
8:15 AM - - - N/A% 29.83 in 10.0 mi West 3.5 mph - N/A   Clear
8:37 AM 32.0 °F 27.5 °F 32.0 °F 100% 29.84 in 10.0 mi West 4.6 mph - N/A   Clear
8:56 AM 33.3 °F 30.2 °F 33.1 °F 99% 29.85 in 10.0 mi West 3.5 mph - N/A   Clear
9:15 AM 34.3 °F 31.4 °F 32.4 °F 92% 29.86 in 10.0 mi West 3.5 mph - N/A   Clear
9:16 AM 34.3 °F 31.4 °F 32.4 °F 92% 29.86 in 10.0 mi West 3.5 mph - N/A   Clear
9:35 AM 36.3 °F 32.5 °F 32.0 °F 84% 29.86 in 10.0 mi West 4.6 mph - N/A   Clear
9:36 AM 36.3 °F 31.6 °F 32.2 °F 85% 29.86 in 10.0 mi West 5.8 mph - N/A   Clear
9:56 AM 37.8 °F 32.5 °F 32.2 °F 80% 29.87 in 10.0 mi WNW 6.9 mph - N/A   Clear
10:15 AM 39.0 °F 34.0 °F 32.0 °F 76% 29.87 in 10.0 mi WNW 6.9 mph - N/A   Clear
10:16 AM 39.0 °F 34.8 °F 32.2 °F 76% 29.87 in 10.0 mi WNW 5.8 mph - N/A   Clear
10:38 AM 40.5 °F 35.1 °F 32.4 °F 73% 29.88 in 10.0 mi WNW 8.1 mph - N/A   Clear
10:55 AM 41.4 °F 36.8 °F 32.2 °F 70% 29.88 in 10.0 mi WNW 6.9 mph - N/A   Clear
10:56 AM 41.4 °F 37.6 °F 32.2 °F 70% 29.88 in 10.0 mi WNW 5.8 mph - N/A   Clear
11:19 AM 41.4 °F 36.8 °F 32.9 °F 72% 29.88 in 10.0 mi WNW 6.9 mph - N/A   Clear
11:37 AM 41.5 °F 35.9 °F 32.9 °F 71% 29.89 in 10.0 mi WNW 9.2 mph - N/A   Clear
11:55 AM 42.8 °F 38.6 °F 33.3 °F 69% 29.89 in 10.0 mi West 6.9 mph - N/A   Clear
11:56 AM 42.8 °F 39.3 °F 33.4 °F 70% 29.89 in 10.0 mi WNW 5.8 mph - N/A   Clear
12:15 PM 44.6 °F 40.2 °F 33.8 °F 66% 29.90 in 10.0 mi West 8.1 mph - N/A   Clear
12:19 PM 44.8 °F 41.0 °F 34.0 °F 66% 29.90 in 10.0 mi West 6.9 mph - N/A   Clear
12:36 PM 45.3 °F 41.6 °F 33.8 °F 64% 29.90 in 10.0 mi West 6.9 mph - N/A   Clear
12:55 PM 44.8 °F 41.6 °F 33.8 °F 65% 29.90 in 10.0 mi West 5.8 mph - N/A   Clear
12:59 PM 44.6 °F 39.7 °F 33.8 °F 66% 29.89 in 10.0 mi WNW 9.2 mph - N/A   Clear
1:15 PM 43.7 °F 38.6 °F 33.8 °F 68% 29.90 in 10.0 mi WNW 9.2 mph - N/A   Clear
1:45 PM - - - N/A% 29.90 in 10.0 mi NW 8.1 mph - N/A   Clear
1:55 PM 44.1 °F 39.5 °F 33.8 °F 67% 29.90 in 10.0 mi West 8.1 mph - N/A   Clear
1:59 PM 43.9 °F 37.9 °F 33.6 °F 67% 29.90 in 10.0 mi West 11.5 mph - N/A   Clear
2:17 PM 44.4 °F 39.5 °F 34.0 °F 67% 29.90 in 10.0 mi WNW 9.2 mph - N/A   Clear
2:35 PM 44.6 °F 40.2 °F 33.8 °F 66% 29.91 in 10.0 mi WNW 8.1 mph - N/A   Clear
2:36 PM 44.6 °F 40.7 °F 33.8 °F 66% 29.91 in 10.0 mi WNW 6.9 mph - N/A   Clear
2:55 PM 44.8 °F 41.0 °F 34.0 °F 66% 29.91 in 10.0 mi WNW 6.9 mph - N/A   Clear
2:59 PM 44.8 °F 40.4 °F 34.0 °F 66% 29.91 in 10.0 mi NW 8.1 mph - N/A   Clear
3:36 PM - - - N/A% 29.92 in 10.0 mi NW 5.8 mph - N/A   Clear
3:55 PM 47.1 °F - 34.5 °F 62% 29.92 in 10.0 mi NW 4.6 mph - N/A   Clear
3:56 PM 47.1 °F - 34.7 °F 62% 29.93 in 10.0 mi NW 5.8 mph - N/A   Clear
4:16 PM 47.1 °F - 34.0 °F 60% 29.94 in 10.0 mi NW 9.2 mph - N/A   Scattered Clouds
4:35 PM 46.8 °F - 33.3 °F 59% 29.95 in 10.0 mi NW 10.4 mph - N/A   Mostly Cloudy
4:36 PM 46.8 °F - 33.3 °F 59% 29.95 in 10.0 mi NW 10.4 mph - N/A   Mostly Cloudy
5:03 PM 46.4 °F 41.9 °F 33.6 °F 61% 29.96 in 10.0 mi NW 9.2 mph - N/A   Overcast
5:15 PM 46.0 °F 41.4 °F 34.0 °F 63% 29.97 in 10.0 mi WNW 9.2 mph - N/A   Overcast
5:16 PM 46.0 °F 41.0 °F 34.2 °F 63% 29.97 in 10.0 mi NW 10.4 mph - N/A   Overcast
5:38 PM 45.1 °F 40.8 °F 33.6 °F 64% 29.98 in 10.0 mi NW 8.1 mph - N/A   Mostly Cloudy
5:56 PM 44.6 °F 40.7 °F 34.2 °F 67% 29.99 in 10.0 mi NW 6.9 mph - N/A   Mostly Cloudy
6:15 PM 43.9 °F 38.3 °F 34.3 °F 69% 30.00 in 10.0 mi NW 10.4 mph - N/A   Overcast
6:16 PM 43.9 °F 37.9 °F 34.3 °F 69% 30.00 in 10.0 mi NW 11.5 mph - N/A   Mostly Cloudy
6:35 PM 43.5 °F 38.9 °F 33.8 °F 69% 30.02 in 10.0 mi NNW 8.1 mph - N/A   Overcast
6:56 PM 42.8 °F 37.5 °F 33.3 °F 69% 30.03 in 10.0 mi NNW 9.2 mph - N/A   Mostly Cloudy
7:15 PM 42.3 °F 36.8 °F 32.9 °F 69% 30.04 in 10.0 mi NW 9.2 mph - N/A   Scattered Clouds
7:16 PM 42.3 °F 36.3 °F 32.9 °F 69% 30.05 in 10.0 mi NW 10.4 mph - N/A   Scattered Clouds
7:39 PM 41.9 °F 36.9 °F 32.9 °F 70% 30.06 in 10.0 mi NW 8.1 mph - N/A   Mostly Cloudy
7:57 PM 41.9 °F 37.5 °F 32.7 °F 70% 30.07 in 10.0 mi NW 6.9 mph - N/A   Overcast
8:15 PM 41.9 °F 37.5 °F 32.9 °F 70% 30.08 in 10.0 mi NW 6.9 mph - N/A   Overcast
8:16 PM 41.9 °F 37.5 °F 33.1 °F 71% 30.08 in 10.0 mi NW 6.9 mph - N/A   Overcast
8:35 PM 41.4 °F 34.7 °F 33.1 °F 72% 30.09 in 10.0 mi NW 11.5 mph - N/A   Overcast
8:39 PM 41.4 °F 34.3 °F 33.1 °F 72% 30.09 in 10.0 mi NW 12.7 mph 17.3 mph N/A   Overcast
8:57 PM 41.0 °F 35.2 °F 32.9 °F 73% 30.10 in 10.0 mi NW 9.2 mph - N/A   Overcast
9:15 PM 40.5 °F 34.1 °F 32.4 °F 73% 30.11 in 10.0 mi WNW 10.4 mph - N/A   Overcast
9:16 PM 40.5 °F 33.6 °F 32.4 °F 73% 30.11 in 10.0 mi WNW 11.5 mph - N/A   Overcast
9:35 PM 40.3 °F 34.4 °F 32.0 °F 72% 30.12 in 10.0 mi NW 9.2 mph - N/A   Overcast
9:59 PM 40.1 °F 34.7 °F 32.4 °F 74% 30.12 in 10.0 mi WNW 8.1 mph - N/A   Overcast
10:15 PM 40.1 °F 35.3 °F 32.4 °F 74% 30.13 in 10.0 mi WNW 6.9 mph - N/A   Overcast
10:35 PM 39.7 °F 33.7 °F 32.9 °F 77% 30.14 in 10.0 mi WNW 9.2 mph - N/A   Overcast
10:36 PM 39.9 °F 32.9 °F 32.9 °F 76% 30.14 in 10.0 mi WNW 11.5 mph - N/A   Overcast
10:59 PM 40.3 °F 33.9 °F 32.7 °F 74% 30.15 in 10.0 mi WNW 10.4 mph - N/A   Overcast
11:17 PM 40.5 °F 34.1 °F 32.0 °F 72% 30.15 in 10.0 mi WNW 10.4 mph - N/A   Overcast
11:35 PM 40.1 °F 34.1 °F 32.4 °F 74% 30.16 in 10.0 mi West 9.2 mph - N/A   Overcast
11:36 PM 40.1 °F 34.7 °F 32.4 °F 74% 30.16 in 10.0 mi West 8.1 mph - N/A   Overcast
11:55 PM 40.1 °F 34.1 °F 32.5 °F 74% 30.16 in 10.0 mi WNW 9.2 mph - N/A   Overcast
11:56 PM 40.1 °F 33.6 °F 32.7 °F 75% 30.16 in 10.0 mi WNW 10.4 mph - N/A   Overcast